Flag for Germany Weather for the Past 2 Weeks in Neustadt am Rübenberge, Lower Saxony, Germany

Now
63 °F

Mild.


Feels Like: 63 °F
Forecast: 55 / 74 °F
Wind: 6 mph from East

Location: Wunstorf Airport

Current Time: May 6, 2016 at 11:12:06 PM

Latest Report: May 6, 2016 at 10:20 PM


Visibility: 4 mi

Pressure: 29.95 "Hg

Humidity: 52%

Dew Point: 45 °F

Location of Neustadt am RübenbergeLocation

Historic Weather in Neustadt am Rübenberge — Graph

°F

Neustadt am Rübenberge Temperature Yesterday

Maximum temperature yesterday: 64 °F (at 4:20 PM)
Minimum temperature yesterday: 37 °F (at 4:20 AM)
Average temperature yesterday: 53 °F

High & Low Weather Summary for the Past Weeks

 TemperatureHumidityPressure
High75 °F (May 6, 4:20 PM)100% (Apr 30, 5:20 AM)30.39 "Hg (Apr 30, 5:20 AM)
Low32 °F (Apr 25, 6:20 AM)26% (May 2, 5:20 PM)29.39 "Hg (Apr 26, 1:20 PM)
Average46 °F69%29.98 "Hg
* Reported Apr 21 9:20 PM — May 6 9:20 PM, Neustadt am Rübenberge, Weather by CustomWeather, © 2016

Note: Actual official high and low records may vary slightly from our data, if they occured in-between our weather recording intervals... More about our weather records

Advertising

Neustadt am Rübenberge Weather History for the Previous 24 Hours

Scroll right to see more
 ConditionsComfort  
Time TempWeatherWind HumidityBarometerVisibility
9:20 PM
Fri, May 6
66 °FMild.12 mph46%29.95 "Hg5 mi
8:20 PM68 °FMild.13 mph40%29.95 "Hg5 mi
7:20 PM72 °FMild.12 mph33%29.95 "Hg4 mi
6:20 PM73 °FMild.16 mph31%29.95 "Hg4 mi
5:20 PM73 °FMild.20 mph36%29.95 "Hg4 mi
4:20 PM75 °FMild.14 mph36%29.98 "Hg4 mi
3:20 PM73 °FMild.15 mph41%30.01 "Hg4 mi
2:20 PM73 °FMild.16 mph41%30.01 "Hg4 mi
1:20 PM72 °FMild.15 mph41%30.04 "Hg4 mi
12:20 PM70 °FMild.14 mph46%30.07 "Hg5 mi
11:20 AM66 °FMild.13 mph56%30.07 "Hg6 mi
10:20 AM63 °FMild.10 mph59%30.07 "Hg6 mi
9:20 AM59 °FCool.9 mph63%30.09 "Hg6 mi
8:20 AM54 °FCool.8 mph72%30.09 "Hg6 mi
7:20 AM50 °FCool.5 mph76%30.12 "Hg6 mi
6:20 AM48 °FCool.7 mph82%30.12 "Hg4 mi
5:20 AM48 °FCool.7 mph82%30.12 "Hg4 mi
4:20 AM50 °FCool.2 mph76%30.12 "Hg4 mi
3:20 AM50 °FCool.3 mph71%30.15 "Hg4 mi
2:20 AM50 °FCool.6 mph71%30.15 "Hg4 mi
1:20 AM52 °FCool.5 mph67%30.15 "Hg4 mi
12:20 AM54 °FCool.3 mph63%30.15 "Hg4 mi
11:20 PM
Thu, May 5
55 °FRefreshingly cool.6 mph59%30.18 "Hg4 mi
Weather by CustomWeather, © 2016

See weather overviewHow to use our weather pages